DECAYED

STARLINK-1294, 45551 (Decayed)

Orbit data source: Space-Track

STARLINK-1294, 45551 was a payload satellite owned by SpaceX/Seattle (US) in LEO that was launched on Wed, 22 Apr 2020 UTC via an FALCON 9 launch vehicle from the Air Force Eastern Test Range (AFETR). Payload-class satellites include a variety of spacecraft equipped with specific instruments for various scientific and technological missions. These include communications satellites like Starlink; space stations such as the ISS; scientific satellites like the Hubble; Earth observation satellites from companies like Planet Labs, Umbra, and HawkEye 360; GPS; miniature CubeSats for education and research; and military/defense satellites.

Not visible in the next 10 days
Identifier
45551, 2020-025W
Orbit
Decayed
Country
Flag of USUS
Related business
Manufacturer
SpaceX/Seattle
Mission
Decayed Commercial Communications
Bus & Motor
STARLINK, Unknown motor
Mass
260 kg wet, ~248 kg dry
Launch date (UTC)
2020-04-22 (6 years ago)
Launch vehicle
FALCON 9
Launch site
Air Force Eastern Test Range (AFETR)
Object type
Payload
Rocket body
Debris
Shape & HBR
Box + 1 Pan, 10.1 m
Radar Cross Section
13.562 m², Large (>1 m²)

Expand to show TLE details & history
Last TLE update: 6 months ago

TLE from 6 months ago
0 STARLINK-1294
1 45551U 20025W   26062.09590104  .12534528  12493-4  33071-3 0  9993
2 45551  53.0150   7.4359 0003065 236.3782 123.6975 16.45728679325906
Epoch: 2026-03-03T02:18Z
TLE epoch observation values (Epoch: 2026-03-03T02:18:05.849Z)
Latitude
0.00001°
Longitude
172.03167°
Altitude
152.646 km
Speed
7.815 km/s
True Right ascension
00h 29m 44s
True Declination
0° 00' 00"
Sunlit
Object was in daylight at epoch
Visualization orbit readout
Latitude
Unknown
Longitude
Unknown
Altitude
Unknown
Speed
Unknown
Apparent Right ascension
Unknown
Apparent Declination
Unknown
Sunlit
N/A
Visualization observer readout
Local Sidereal Time
07:40:06
Azimuth
Unknown
Elevation
Unknown
Doppler factor
Unknown
Orbital elements
Apogee altitude
152.902 km
Perigee altitude
148.9 km
Semi-major axis
6,529.038 km
Eccentricity
0.00031
Inclination
53.015°
RAAN
7.4359°
Arg. of periapsis
236.3782°
True anomaly
123.72671°
Mean anomaly
123.6975°
Eccentric anomaly
123.71211°
Mean motion
4.11405 °/min
Orbital period
87.51 mins
BSTAR
0.00033071
Loading maneuver chart data...
Computing Atmospheric mass density...

Documentation

Showing up to 5 results
|